Flag for Spain Weather past 2 weeks in Torrevieja, Spain

Now
63 °F

Passing clouds.


Feels Like: 63 °F
Forecast: 61 / 73 °F
Wind: 2 mph from West

Location: Murcia / San Javier

Current Time: Apr 26, 2015 at 9:16:16 AM

Latest Report: Apr 26, 2015 at 8:00 AM


Visibility: N/A

Pressure: 29.83 "Hg

Humidity: 88%

Dew point: 59 °F

Location of TorreviejaLocation

Historic Weather in Torrevieja — Graph

°F

Torrevieja temperature yesterday

Maximum temperature yesterday: 75 °F (at 4:00 PM)
Minimum temperature yesterday: 61 °F (at 8:00 AM)
Average temperature yesterday: 69 °F

Past Weeks' High & Low Weather Summary

 TemperatureHumidityPressure
High75 °F (Apr 25, 4:00 PM)100% (Apr 16, 6:00 AM)30.36 "Hg (Apr 16, 6:00 AM)
Low52 °F (Apr 18, 8:00 AM)31% (Apr 19, 1:00 PM)29.83 "Hg (Apr 26, 8:00 AM)
Average64 °F75%30.10 "Hg
* Reported Apr 11 8:00 AM — Apr 26 8:00 AM, Torrevieja, Weather by CustomWeather, © 2015

Note: Actual official high and low records may vary slightly from our data, if they occured in-between our weather recording intervals... More about our weather records

Advertising

Torrevieja weather history for previous 24 hours

 ConditionsComfort  
Time TempWeatherWind HumidityBarometerVisibility
8:00 AM
Sun, Apr 26
63 °FPassing clouds.2 mph88%29.83 "HgN/A
11:00 PM
Sat, Apr 25
64 °FClear.No wind78%29.89 "Hg10 mi
10:00 PM64 °FPassing clouds.3 mph78%29.92 "HgN/A
9:00 PM64 °FSunny.10 mph78%29.89 "Hg10 mi
8:00 PM70 °FPassing clouds.7 mph64%29.89 "HgN/A
7:00 PM72 °FPassing clouds.5 mph53%29.89 "HgN/A
6:00 PM72 °FClear.9 mph57%29.89 "Hg6 mi
5:00 PM75 °FClear.14 mph50%29.92 "Hg6 mi
4:00 PM75 °FPassing clouds.8 mph50%29.92 "HgN/A
3:00 PM73 °FClear.10 mph61%29.95 "Hg4 mi
2:00 PM73 °FClear.12 mph57%29.95 "Hg4 mi
1:00 PM72 °FHaze.9 mph65%29.98 "Hg3 mi
12:00 PM72 °FHaze.6 mph69%29.98 "Hg2 mi
11:00 AM70 °FFog.5 mph69%29.98 "Hg2 mi
10:00 AM64 °FFog.3 mph83%29.98 "Hg1 mi
9:00 AM63 °FFog.3 mph83%29.98 "Hg1 mi
Weather by CustomWeather, © 2015

See weather overviewHow to use our weather pages